Location: Arborea
(39.7744°N, 8.5819°E)
Time: 01:19:56
(UTC+00:00)

Cosmos 1000 Rocket - Pass Details

Date: 04 October 2023
Orbit: 952 x 993 km, 82.9° (Epoch: 03 December)

Event Time Altitude Azimuth Distance (km) Brightness Sun altitude
Exits shadow 20:46:31 21° 350° (N) 2,053 6.5 -41.5°
Drops below altitude 10° 20:48:35 10° 358° (N) 2,764 7.2 -41.8°
Sets 20:51:12 0° 3° (N) 3,716 7.9 -42.2°
